When you browse on this site, cookies collect data to enhance your experience and personalize the content and advertising you see.
Visit our Privacy Policy to learn more. By continuing to use the site, you agree to this use of cookies and data.
  • In Spain
  • List of Countries
  • For 7 days
  • Water Temperature
  • Weather Map
  • Weather Widgets
  • user-avatar
    Login

    Hourly Weather Vortihovo

    Today, 7 June, Sunday

    Time Temperature Precipitation Wind Pressure Humidity
    00:00 +15°C° 0 mm 1 mps 740 mmHg 92%
    01:00 +14°C° 0 mm 1 mps 741 mmHg 92%
    02:00 +14°C° 0 mm 1 mps 741 mmHg 93%
    03:00 +14°C° 0 mm 1 mps 741 mmHg 92%
    04:00 +14°C° 0 mm 0 mps 742 mmHg 91%
    05:00 +14°C° 0 mm 0 mps 742 mmHg 91%
    06:00 +18°C° 0 mm 1 mps 742 mmHg 87%
    07:00 +19°C° 0 mm 1 mps 743 mmHg 82%
    08:00 +21°C° 0 mm 1 mps 743 mmHg 78%
    09:00 +22°C° 0 mm 1 mps 743 mmHg 73%
    10:00 +23°C° 0 mm 1 mps 743 mmHg 67%
    11:00 +25°C° 0 mm 2 mps 744 mmHg 62%
    12:00 +25°C° 0 mm 2 mps 744 mmHg 60%
    13:00 +26°C° 0 mm 2 mps 744 mmHg 59%
    14:00 +26°C° 0 mm 2 mps 744 mmHg 58%
    15:00 +26°C° 0 mm 2 mps 743 mmHg 61%
    16:00 +25°C° 0 mm 2 mps 743 mmHg 65%
    17:00 +25°C° 0 mm 2 mps 742 mmHg 69%
    18:00 +24°C° 0 mm 2 mps 742 mmHg 74%
    19:00 +21°C° 0 mm 2 mps 742 mmHg 80%
    20:00 +20°C° 0 mm 2 mps 742 mmHg 85%
    21:00 +19°C° 0 mm 2 mps 742 mmHg 86%
    22:00 +19°C° 0 mm 2 mps 742 mmHg 87%
    23:00 +18°C° 0 mm 3 mps 742 mmHg 88%

    Tomorrow, 8 June, Monday

    Time Temperature Precipitation Wind Pressure Humidity
    00:00 +18°C° 0.1 mm 2 mps 742 mmHg 91%
    01:00 +17°C° 0.1 mm 2 mps 742 mmHg 93%
    02:00 +17°C° 0.1 mm 2 mps 742 mmHg 95%
    03:00 +17°C° 0 mm 2 mps 742 mmHg 95%
    04:00 +18°C° 0 mm 2 mps 742 mmHg 95%
    05:00 +18°C° 0 mm 2 mps 742 mmHg 94%
    06:00 +19°C° 0 mm 3 mps 742 mmHg 90%
    07:00 +21°C° 0 mm 3 mps 742 mmHg 86%
    08:00 +22°C° 0 mm 4 mps 743 mmHg 82%
    09:00 +23°C° 0 mm 4 mps 743 mmHg 77%
    10:00 +25°C° 0 mm 4 mps 743 mmHg 72%
    11:00 +26°C° 0 mm 5 mps 743 mmHg 67%
    12:00 +27°C° 0 mm 4 mps 743 mmHg 66%
    13:00 +27°C° 0 mm 4 mps 743 mmHg 65%
    14:00 +28°C° 0 mm 4 mps 742 mmHg 64%
    15:00 +27°C° 0 mm 3 mps 742 mmHg 66%
    16:00 +27°C° 0 mm 3 mps 742 mmHg 69%
    17:00 +27°C° 0 mm 3 mps 742 mmHg 71%
    18:00 +25°C° 0 mm 2 mps 742 mmHg 76%
    19:00 +24°C° 0 mm 2 mps 742 mmHg 82%
    20:00 +21°C° 0 mm 2 mps 742 mmHg 87%
    21:00 +20°C° 0 mm 2 mps 742 mmHg 88%
    22:00 +19°C° 0 mm 2 mps 742 mmHg 90%
    23:00 +18°C° 0 mm 2 mps 743 mmHg 91%

    Day after tomorrow, 9 June, Tuesday

    Time Temperature Precipitation Wind Pressure Humidity
    00:00 +18°C° 0 mm 2 mps 743 mmHg 92%
    01:00 +18°C° 0 mm 2 mps 743 mmHg 93%
    02:00 +18°C° 0 mm 2 mps 743 mmHg 95%
    03:00 +18°C° 0 mm 2 mps 743 mmHg 94%
    04:00 +18°C° 0 mm 2 mps 743 mmHg 94%
    05:00 +19°C° 0 mm 2 mps 743 mmHg 94%
    06:00 +20°C° 0 mm 2 mps 743 mmHg 89%
    07:00 +23°C° 0 mm 2 mps 743 mmHg 84%
    08:00 +24°C° 0 mm 3 mps 743 mmHg 80%
    09:00 +25°C° 0 mm 3 mps 743 mmHg 75%
    10:00 +26°C° 0 mm 3 mps 743 mmHg 70%
    11:00 +27°C° 0 mm 3 mps 743 mmHg 65%
    12:00 +28°C° 0.1 mm 3 mps 743 mmHg 64%
    13:00 +28°C° 0.1 mm 3 mps 743 mmHg 63%
    14:00 +28°C° 0.1 mm 3 mps 743 mmHg 62%
    15:00 +28°C° 0.2 mm 2 mps 743 mmHg 65%
    16:00 +28°C° 0.2 mm 2 mps 743 mmHg 68%
    17:00 +28°C° 0.2 mm 2 mps 743 mmHg 71%
    18:00 +26°C° 0.1 mm 2 mps 743 mmHg 76%
    19:00 +25°C° 0.1 mm 2 mps 743 mmHg 82%
    20:00 +23°C° 0.1 mm 2 mps 743 mmHg 87%
    21:00 +21°C° 0 mm 2 mps 743 mmHg 89%
    22:00 +20°C° 0 mm 2 mps 743 mmHg 90%
    23:00 +21°C° 0 mm 1 mps 743 mmHg 92%

    10 June, Wednesday

    Time Temperature Precipitation Wind Pressure Humidity
    00:00 +20°C° 0 mm 1 mps 743 mmHg 93%
    01:00 +20°C° 0 mm 1 mps 743 mmHg 93%
    02:00 +18°C° 0 mm 2 mps 743 mmHg 93%
    03:00 +20°C° 0 mm 1 mps 743 mmHg 93%
    04:00 +20°C° 0 mm 1 mps 743 mmHg 93%
    05:00 +20°C° 0 mm 1 mps 743 mmHg 93%
    06:00 +21°C° 0 mm 2 mps 743 mmHg 89%
    07:00 +23°C° 0 mm 2 mps 743 mmHg 85%
    08:00 +25°C° 0 mm 2 mps 743 mmHg 81%
    09:00 +26°C° 0.7 mm 2 mps 743 mmHg 76%
    10:00 +27°C° 0.7 mm 2 mps 743 mmHg 72%
    11:00 +28°C° 0.7 mm 2 mps 743 mmHg 67%
    12:00 +28°C° 0 mm 2 mps 743 mmHg 65%
    13:00 +29°C° 0 mm 2 mps 743 mmHg 63%
    14:00 +29°C° 0 mm 2 mps 742 mmHg 62%
    15:00 +29°C° 0 mm 2 mps 742 mmHg 64%
    16:00 +29°C° 0 mm 2 mps 742 mmHg 67%
    17:00 +28°C° 0 mm 2 mps 742 mmHg 70%
    18:00 +27°C° 0.1 mm 2 mps 742 mmHg 76%
    19:00 +25°C° 0.1 mm 2 mps 742 mmHg 83%
    20:00 +23°C° 0.1 mm 2 mps 742 mmHg 89%
    21:00 +21°C° 0 mm 2 mps 742 mmHg 91%
    22:00 +21°C° 0 mm 2 mps 742 mmHg 92%
    23:00 +20°C° 0 mm 2 mps 743 mmHg 94%

    11 June, Thursday

    Time Temperature Precipitation Wind Pressure Humidity
    00:00 +20°C° 0 mm 2 mps 742 mmHg 95%
    01:00 +19°C° 0 mm 2 mps 742 mmHg 95%
    02:00 +19°C° 0 mm 2 mps 742 mmHg 96%
    03:00 +19°C° 0 mm 2 mps 742 mmHg 96%
    04:00 +19°C° 0 mm 2 mps 742 mmHg 96%
    05:00 +19°C° 0 mm 2 mps 742 mmHg 96%
    06:00 +21°C° 0 mm 2 mps 743 mmHg 92%
    07:00 +23°C° 0 mm 2 mps 743 mmHg 88%
    08:00 +25°C° 0 mm 3 mps 743 mmHg 84%
    09:00 +26°C° 0.3 mm 3 mps 743 mmHg 80%
    10:00 +27°C° 0.3 mm 3 mps 743 mmHg 76%
    11:00 +28°C° 0.3 mm 4 mps 743 mmHg 71%
    12:00 +28°C° 0.3 mm 3 mps 743 mmHg 70%
    13:00 +28°C° 0.3 mm 3 mps 742 mmHg 69%
    14:00 +29°C° 0.3 mm 3 mps 742 mmHg 67%
    15:00 +28°C° 0.1 mm 3 mps 742 mmHg 69%
    16:00 +28°C° 0.1 mm 3 mps 742 mmHg 70%
    17:00 +28°C° 0.1 mm 2 mps 742 mmHg 71%
    18:00 +27°C° 0 mm 2 mps 742 mmHg 76%
    19:00 +25°C° 0 mm 2 mps 742 mmHg 80%
    20:00 +23°C° 0 mm 2 mps 742 mmHg 84%
    21:00 +23°C° 0 mm 2 mps 742 mmHg 86%
    22:00 +21°C° 0 mm 2 mps 742 mmHg 89%
    23:00 +20°C° 0 mm 2 mps 742 mmHg 91%

    12 June, Friday

    Time Temperature Precipitation Wind Pressure Humidity
    00:00 +19°C° 0 mm 2 mps 742 mmHg 93%
    01:00 +19°C° 0 mm 2 mps 741 mmHg 94%
    02:00 +18°C° 0 mm 2 mps 741 mmHg 95%
    03:00 +19°C° 0 mm 2 mps 741 mmHg 95%
    04:00 +19°C° 0 mm 2 mps 741 mmHg 94%
    05:00 +19°C° 0 mm 2 mps 741 mmHg 94%
    06:00 +21°C° 0 mm 2 mps 741 mmHg 90%
    07:00 +22°C° 0 mm 3 mps 742 mmHg 85%
    08:00 +25°C° 0 mm 3 mps 742 mmHg 81%
    09:00 +26°C° 0 mm 3 mps 742 mmHg 78%
    10:00 +27°C° 0 mm 3 mps 742 mmHg 74%
    11:00 +28°C° 0 mm 3 mps 742 mmHg 70%
    12:00 +28°C° 0 mm 3 mps 741 mmHg 68%
    13:00 +29°C° 0 mm 3 mps 741 mmHg 66%
    14:00 +29°C° 0 mm 3 mps 741 mmHg 65%
    15:00 +29°C° 0.2 mm 2 mps 741 mmHg 68%
    16:00 +29°C° 0.2 mm 2 mps 741 mmHg 71%
    17:00 +29°C° 0.2 mm 2 mps 741 mmHg 74%
    18:00 +27°C° 0.2 mm 2 mps 741 mmHg 78%
    19:00 +26°C° 0.2 mm 2 mps 741 mmHg 83%
    20:00 +24°C° 0.2 mm 2 mps 741 mmHg 87%
    21:00 +23°C° 0 mm 2 mps 741 mmHg 88%
    22:00 +21°C° 0 mm 3 mps 741 mmHg 90%
    23:00 +20°C° 0 mm 3 mps 741 mmHg 92%
    Show more